Location: Newark
(52.4019°N, 0.6844°W)
Time: 16:58:09
(UTC+00:00)

Envisat - Visible Passes

Search period start: 17 November 2019 00:00
Search period end: 27 November 2019 00:00
Orbit: 764 x 766 km, 98.1° (Epoch: 17 November)

Date Brightness Start Highest point End Pass type
(mag) Time Alt. Az. Time Alt. Az. Time Alt. Az.
17 Nov 6.0 05:35:20 10° NE 05:38:18 15° E 05:41:15 10° ESE visible
17 Nov 3.5 16:54:56 10° SE 16:59:33 36° ENE 17:04:11 10° N visible
17 Nov 4.3 18:33:46 10° SSW 18:38:32 41° W 18:43:21 10° NNW visible
18 Nov 4.3 06:36:18 10° NNE 06:41:12 46° E 06:46:05 10° S visible
18 Nov 3.1 17:56:32 10° SSE 18:01:38 79° WSW 18:06:45 10° NNW visible
18 Nov 6.0 19:39:02 10° WSW 19:41:31 13° W 19:44:00 10° NW visible
19 Nov 5.5 06:00:01 10° NE 06:04:08 24° E 06:08:14 10° SE visible
19 Nov 3.1 17:19:57 10° SE 17:24:54 55° ENE 17:29:53 10° N visible
19 Nov 5.1 19:00:02 10° SSW 19:04:16 26° W 19:08:30 10° NW visible
20 Nov 6.2 05:24:43 10° ENE 05:26:51 12° E 05:28:58 10° ESE visible
20 Nov 3.7 16:43:59 10° ESE 16:48:21 30° ENE 16:52:46 10° N visible
20 Nov 3.9 18:22:17 10° S 18:27:12 50° W 18:32:10 10° NNW visible
21 Nov 4.7 06:25:07 10° NNE 06:29:52 38° E 06:34:35 10° SSE visible
21 Nov 2.9 17:45:16 10° SSE 17:50:21 86° ENE 17:55:29 10° NNW visible
21 Nov 5.8 19:26:53 10° SW 19:30:05 17° W 19:33:17 10° NW visible
22 Nov 5.8 05:49:00 10° NE 05:52:44 20° E 05:56:26 10° SE visible
22 Nov 3.2 17:08:51 10° SE 17:13:40 46° ENE 17:18:32 10° N visible
22 Nov 4.8 18:48:23 10° SSW 18:52:53 31° W 18:57:25 10° NNW visible
23 Nov 3.7 06:50:26 10° NNE 06:55:30 61° E 07:00:31 10° S visible
23 Nov 3.9 16:33:03 10° ESE 16:37:11 26° ENE 16:41:21 10° N visible
23 Nov 3.5 18:10:52 10° S 18:15:53 61° W 18:20:57 10° NNW visible
24 Nov 5.0 06:13:58 10° NNE 06:18:30 31° E 06:23:01 10° SSE visible
24 Nov 2.9 17:34:02 10° SSE 17:39:05 72° ENE 17:44:10 10° NNW visible
24 Nov 5.5 19:14:57 10° SW 19:18:39 20° W 19:22:23 10° NW visible
25 Nov 6.0 05:38:06 10° NE 05:41:18 17° E 05:44:30 10° SE visible
25 Nov 3.5 16:57:47 10° SE 17:02:28 38° ENE 17:07:09 10° N visible
25 Nov 4.4 18:36:48 10° SSW 18:41:31 38° W 18:46:16 10° NNW visible
26 Nov 4.1 06:39:13 10° NNE 06:44:11 50° E 06:49:06 10° S visible
26 Nov 3.2 17:59:30 10° S 18:04:34 74° WSW 18:09:42 10° NNW visible
26 Nov 6.1 19:42:25 10° WSW 19:44:32 12° W 19:46:38 10° WNW visible
